Погода в Иланском

Россия / Красноярский край     56°14′18″N   96°03′55″E
темп.,
°C
ветер,
м/с
пор.,
м/с
влажн.,
%
обл.,
%
осадки,
мм/ч
давл.,
гПа
погр.,
м
11 апреля, вс
вс1101:00−8св23925 0.0 104344
04:00−9всв11935 0.0 104310
07:00−7ссв00835 0.0 104443
10:00−3сз10670 0.0 1044410
13:00−1зюз226418 0.0 1041532
16:000зюз3465100 0.0 1039424
19:00−1юз3682100 0.0 1038171
22:00−2юз2788100 0.0 1037144
12 апреля, пн
пн1201:00−2зюз389397 0.0 1035219
04:00−1зюз4996100 0.4 1034317
07:00−1зюз4992100 0.6 1034302
10:00+1зюз589099 0.1 1032433
13:00+2зюз5787100 0.1 1030507
16:00+1юз51198100 1.1 1027536
19:00+1юз61398100 4.3 1025496
22:00+2зюз71498100 2.3 1023792
13 апреля, вт
вт1301:00+1зюз61398100 3.3 1021790
04:00+1зюз51298100 2.3 1020743
07:00+1з51098100 4.3 1022825
10:00+1сз61080100 0.5 10241138
13:00+2зсз6975100 0.6 10251358
16:00+3зсз696684 0.3 10241511
19:00+1з5117781 0.5 1024495
22:00−1зюз41088100 0.1 1025314
14 апреля, ср
ср1401:00−1зюз61390100 0.1 1024595
04:000з61195100 0.8 1022822
07:000з51182100 1.1 1022867
10:00+2зюз71285100 0.2 10201177
13:00+3зсз9137489 1.5 10171631
16:00+3зсз812695 0.7 10181505
19:00+1зсз59735 0.9 1020325
22:00−1з3889100 0.1 1022173
15 апреля, чт
чт1501:00−2зюз2495100 0.1 1022103
04:00−2зюз239635 0.0 102168
07:00−1зюз1291100 0.0 1020128
10:00+2зюз2380100 0.1 1020628
13:00+3юз2378100 0.1 1019805
16:00+3юз349699 0.1 1019396
19:00+2юз3799100 0.2 1018508
22:00+2юз4998100 0.3 1018485